STARLINK-4115, 53032

Orbit data source: Space-Track

STARLINK-4115, 53032 is a payload satellite owned by SpaceX/Seattle (US) in LEO that was launched on Thu, 07 Jul 2022 UTC via an FALCON 9 launch vehicle from the Air Force Eastern Test Range (AFETR). Payload-class satellites include a variety of spacecraft equipped with specific instruments for various scientific and technological missions. These include communications satellites like Starlink; space stations such as the ISS; scientific satellites like the Hubble; Earth observation satellites from companies like Planet Labs, Umbra, and HawkEye 360; GPS; miniature CubeSats for education and research; and military/defense satellites.

Loading next visibility...
Identifier
53032, 2022-076AY
Orbit
LEO
Country
Flag of USUS
Related business
Manufacturer
SpaceX/Seattle
Mission
Operational Commercial Communications
Bus & Motor
STARLINK, Unknown motor
Mass
297 kg wet, ~275 kg dry
Launch date (UTC)
2022-07-07 (4 years ago)
Launch vehicle
FALCON 9
Launch site
Air Force Eastern Test Range (AFETR)
Object type
Payload
Rocket body
Debris
Shape & HBR
Box + 1 Pan, 10.1 m
Radar Cross Section
13.562 m², Large (>1 m²)

Expand to show TLE details & history
Last TLE update: 2 days ago

TLE from 2 days ago
0 STARLINK-4115
1 53032U 22076AY  26171.41668980  .00069183  00000-0  37755-2 0  9995
2 53032  53.1598 342.8010 0002453  87.5046  89.6673 15.13729541  5774
Epoch: 2026-06-20T10:00Z
TLE epoch observation values (Epoch: 2026-06-20T10:00:01.998Z)
Latitude
2.17441°
Longitude
102.53997°
Altitude
525.466 km
Speed
7.602 km/s
True Right ascension
10h 44m 43s
True Declination
2° 09' 39"
Sunlit
Object was in daylight at epoch
Visualization orbit readout
Latitude
Unknown
Longitude
Unknown
Altitude
Unknown
Speed
Unknown
Apparent Right ascension
Unknown
Apparent Declination
Unknown
Sunlit
N/A
Visualization observer readout
Local Sidereal Time
21:59:46
Azimuth
Unknown
Elevation
Unknown
Doppler factor
Unknown
Orbital elements
Apogee altitude
526.786 km
Perigee altitude
523.4 km
Semi-major axis
6,903.23 km
Eccentricity
0.00025
Inclination
53.1598°
RAAN
342.801°
Arg. of periapsis
87.5046°
True anomaly
89.69541°
Mean anomaly
89.6673°
Eccentric anomaly
89.68135°
Mean motion
3.78412 °/min
Orbital period
95.13 mins
BSTAR
0.0037755
Loading maneuver chart data...
Computing Atmospheric mass density...
Loading historical data...
Loading historical data...
Loading historical data...
Loading historical data...
Loading historical data...
Loading historical data...
Loading historical data...

Documentation

Showing up to 5 results
|